FLOCK 4BE 27

导读

FLOCK 4BE 27是美国于2024年8月16日发射的商业遥感卫星,隶属于Planet公司FLOCK星座。该卫星延续了SuperDove系列卫星设计,具备多光谱成像能力,配备8个光谱波段,可提供高分辨率地表观测数据。作为FLOCK星座的补充卫星,它将提升星座重访能力,为农业监测、自然资源管理、灾害评估、城市规划等领域提供高频次、高质量遥感影像支持,服务全球商业用户与科研机构,助力对地观测应用发展。

基本信息
目录编号:
60513
目录名称:
FLOCK 4BE 27
国际标识:
2024-149AX
轨道中心:
EARTH
卫星名称:
FLOCK 4BE 27
卫星全名:
FLOCK 4BE 27
卫星状态:
在轨 (已飞行749 天)
发射日期:
2024-08-16 UTC
国别 :
美国 (US)
星等 :
--
轨道信息
数据来源 国际轨道数据
星历时间: 2026-09-02T20:06:57+0800
1天前
查看轨道信息
半长轴: 6837.128km
偏心率: 0.0004692
轨道倾角: 97.378°
近地点辐角 47.324°
升交点赤经 327.442°
平近点角 312.840°
近地点: 455.783km
远地点: 462.199km
周期: 93.771分钟
每日圈数: 15.356501
详细信息
使用方式:
暂无
2D轨道图
3D轨道图
轨道高度分析图
轨道倾角分析图
轨道综合分析图
查看轨道综合分析图